sat.trackr.live / text

‹ back to catalog

GEESAT-6 05

NORAD 65717 · 2025-214F

PAYLOAD ACTIVE UNKNOWN

§ Identity

Operator
Country
PRC
Launch date
2025-09-24
Launch site
YSLA
Launch vehicle
Mass (kg)
RCS (m²)

External: N2YO · Heavens-Above · Gunter

§ Orbital elements

Epoch: 2026-09-20T10:17:42.162144Z

Period
97.06 min
Inclination
49.9790°
Eccentricity
0.0012546
Mean motion
14.83619430 rev/d
Perigee alt
609.1 km
Apogee alt
626.7 km
Semi-major
6,996.1 km
B*
1.4227e-4
RAAN
226.8905°
Arg perigee
220.0563°
Mean anomaly
139.9450°
Rev number
5,364

§ Raw data

GEESAT-6 051 65717U 25214F   26263.42896021  .00000959  00000+0  14227-3 0  99922 65717  49.9790 226.8905 0012546 220.0563 139.9450 14.83619430 53642

JSON: /api/v1/satellites/65717 · /tle

For live sub-satellite position, see the globe view (requires WebGL).

§ Visibility from observer

Set your observer location to see the next 7 days of passes ≥ 10°. The values pass through the URL so the page stays shareable.

No JS? Fill the form by hand. The geolocation button needs JavaScript.